[[{"header":{"parameterUnit":"m.s-1","parameterCategory":1,"la1":30.2991,"la2":30.254,"lo1":-89.0895,"lo2":-89.0444,"dy":0.0017,"dx":0.0017,"nx":28,"ny":28,"refTime":"2023-08-24T21:00:00:Z","depth":0,"parameterNumber":2,"parameterNumberName":"U-component_of_WINDS"},"data":[0,0,0,0,0,0,0,0,0,0,0,0,0,0,0,0,0,0,0,0,0,0,0,0,0,0,0,0,0,0,0,0,0,0,0,0,0,0,0,0,0,0,0,0,0,0,0,0,0,0,0,0,0,0,0,0,0,0,4.6442,4.6443,0,4.6582,4.6584,4.6586,4.6508,4.6504,4.65,4.6496,4.6642,4.6649,4.6657,0,0,0,0,0,0,0,0,0,0,0,0,0,4.6108,4.6114,4.6441,4.6443,4.6445,4.6582,4.6584,4.6586,4.6508,4.6504,4.6499,4.6494,4.664,4.6649,4.6658,0,0,0,0,0,0,0,0,0,0,0,0,0,4.6251,4.6116,4.6441,4.6423,4.6422,4.6582,4.6584,4.6586,4.6509,4.6503,4.6498,4.6492,4.6637,4.6648,4.6659,4.6845,0,0,4.6693,4.6698,0,0,0,0,0,0,0,0,4.6243,4.6263,4.6424,4.6424,4.6424,4.6521,4.652,4.6673,4.6511,4.6476,4.6496,4.6489,4.6607,4.662,4.6659,4.6852,4.6858,4.6694,4.6701,4.6706,4.6709,0,0,0,0,0,0,0,4.6233,4.6257,4.6497,4.6426,4.6427,4.6408,4.6422,4.6548,4.6573,4.6479,4.6474,4.6491,4.6606,4.6649,4.6662,4.686,4.6694,4.6704,4.6711,4.6715,4.7213,4.7219,0,0,0,0,0,0,4.6224,4.6249,4.6493,4.6501,4.6317,4.6419,4.6434,4.6496,4.6571,4.6577,4.6496,4.6487,4.6632,4.6649,4.6667,4.6891,4.6706,4.6716,4.6723,4.7207,4.7215,4.7222,0,0,0,0,0,0,4.6217,4.6247,4.6487,4.6374,4.6403,4.6431,4.6501,4.6502,4.6545,4.6584,4.6588,4.6535,4.6628,4.6651,4.6801,4.6895,4.6721,4.6732,4.7199,4.7209,4.7218,4.7339,0,0,0,0,0,0,4.6208,4.6245,4.6315,4.6376,4.641,4.6619,4.6506,4.6509,4.6564,4.6554,4.6622,4.6628,4.6626,4.6785,4.6813,4.6907,4.674,4.7191,4.7204,4.7215,4.7327,4.7351,4.7373,0,0,0,0,0,4.6196,4.6343,4.6319,4.6349,4.6498,4.6624,4.6643,4.6638,4.6572,4.6643,4.6669,4.6625,4.688,4.6801,4.6831,4.6931,4.7185,4.72,4.7214,4.7316,4.7347,4.7372,0,0,0,0,0,0,4.6293,4.6351,4.6324,4.6495,4.6556,4.6611,4.67,4.667,4.675,4.6737,4.6727,4.6743,4.6899,4.693,4.6841,4.7115,4.7022,4.7044,4.709,4.7119,4.7141,4.7131,4.675,0,0,0,0,0,4.6334,4.6431,4.6477,4.6623,4.6655,4.6673,4.6727,4.6718,4.678,4.6805,4.6841,4.6904,4.6997,4.706,4.7148,4.7331,4.7345,4.7414,4.7437,4.7456,4.7474,4.7574,4.7606,4.727,4.727,4.7269,0,0,4.642,4.6464,4.6525,4.6644,4.6689,4.6791,4.6694,4.6806,4.6881,4.6822,4.6966,4.6995,4.7064,4.7232,4.7307,4.7262,4.7571,4.7474,4.7489,4.7498,4.7593,4.7625,4.7653,4.728,4.7278,4.7276,0,0,4.6628,4.6671,4.6798,4.6846,4.6915,4.6927,4.6957,4.7018,4.7035,4.7179,4.7137,4.7227,4.7389,4.744,4.7488,4.7718,4.7681,4.7747,4.7867,4.7965,4.7991,4.8015,4.8098,4.8127,4.7765,4.7765,4.7766,0,4.6726,4.6877,4.6867,4.6983,4.7036,4.6987,4.7117,4.7163,4.7259,4.7298,4.7245,4.7448,4.7491,4.7671,4.7727,4.7766,4.7802,4.7739,4.7988,4.8012,4.8033,4.8112,4.8143,4.7773,4.7772,4.7771,4.7771,0,4.6995,4.71,4.7195,4.7288,4.7353,4.7474,4.7484,4.7551,4.7536,4.7553,4.7702,4.7752,4.785,4.7892,4.7878,4.807,4.804,4.7988,4.7895,4.8073,4.8147,4.8177,4.7784,4.7781,4.7779,4.7777,0,0,4.7268,4.7355,4.739,4.7432,4.7506,4.7588,4.7708,4.7804,4.7862,4.793,4.8031,4.817,4.8123,4.8176,4.8169,4.8254,4.8434,4.8192,4.8194,4.8236,4.865,4.8689,4.8724,4.8411,4.8416,4.8421,4.8644,0,4.7482,4.7691,4.7687,4.7881,4.7979,4.7935,4.8039,4.8097,4.8116,4.8203,4.8224,4.8323,4.8253,4.8286,4.8368,4.8395,4.8518,4.8379,4.8506,4.851,4.849,4.8762,4.8804,4.9012,4.8673,4.8678,4.8682,0,4.776,4.7837,4.8041,4.8102,4.8143,4.8237,4.8325,4.8408,4.8473,4.8481,4.8542,4.8521,4.8644,4.8547,4.8717,4.8623,4.8675,4.8696,4.8704,4.8716,4.8607,4.8782,4.9078,4.911,4.8727,4.8723,4.872,0,4.7939,4.8094,4.8237,4.8275,4.8349,4.8416,4.845,4.8509,4.8567,4.8645,4.8683,4.8774,4.8824,4.8895,4.89,4.8829,4.9072,4.8975,4.9083,4.9083,4.9137,4.9133,4.9446,4.9169,4.9169,4.9168,4.9168,0,4.8179,4.8307,4.8319,4.8407,4.8548,4.8542,4.8683,4.8711,4.8764,4.8857,4.8824,4.8912,4.8913,4.9003,4.9008,4.9149,4.9171,4.9182,4.9182,4.9186,4.9185,4.922,4.9206,4.9177,4.9175,4.9173,4.9172,0,4.8404,4.8418,4.857,4.8628,4.8646,4.8748,4.8797,4.8882,4.8898,4.9017,4.9044,4.9071,4.9176,4.9187,4.931,4.9313,4.9483,4.9467,4.9461,4.9459,4.9567,4.9557,4.9913,4.996,4.9652,4.9655,4.9658,0,4.8557,4.8654,4.8722,4.8782,4.882,4.8917,4.8976,4.8974,4.9038,4.9119,4.9194,4.9296,4.9377,4.9547,4.9578,4.9671,4.9658,4.9776,4.9672,4.9673,4.9661,4.9655,4.9665,4.9797,4.98,4.9803,4.9805,0,4.8827,4.8829,4.8915,4.9005,4.9077,4.9148,4.9214,4.9265,4.9272,4.9345,4.9452,4.9515,4.964,4.9742,4.9834,4.987,4.984,4.9838,4.9868,4.9873,4.9866,4.9872,4.9517,4.983,4.9827,4.9825,4.9824,4.9823,4.9021,4.9105,4.9167,4.9265,4.9314,4.9377,4.946,4.9487,4.9575,4.9677,4.967,4.9789,4.9852,4.9973,5.0015,5.0108,5.0069,5.0113,5.0124,5.0135,5.0146,4.9851,5.0125,5.0124,5.0124,5.0123,5.0123,0,4.929,4.9327,4.9418,4.9511,4.9589,4.9553,4.9624,4.9692,4.9796,4.9857,4.9938,5.0061,5.016,5.0199,5.0296,5.0363,5.0351,5.0388,5.0384,5.0393,5.0175,5.014,5.0396,5.0396,5.0396,5.0396,5.0396,5.0396,4.9439,4.958,4.959,4.9756,4.9792,4.9907,4.9951,5.001,5.0058,5.0198,5.0279,5.0304,5.0356,5.0457,5.0546,5.0555,5.0593,5.0636,5.0639,5.0435,5.0408,5.0382,5.0348,5.0644,5.0645,5.0849,5.0851,5.0852]},{"header":{"parameterUnit":"m.s-1","parameterCategory":1,"la1":30.2991,"la2":30.254,"lo1":-89.0895,"lo2":-89.0444,"dy":0.0017,"dx":0.0017,"nx":28,"ny":28,"refTime":"2023-08-24T21:00:00:Z","depth":0,"parameterNumber":3,"parameterNumberName":"V-component_of_WINDS"},"data":[0,0,0,0,0,0,0,0,0,0,0,0,0,0,0,0,0,0,0,0,0,0,0,0,0,0,0,0,0,0,0,0,0,0,0,0,0,0,0,0,0,0,0,0,0,0,0,0,0,0,0,0,0,0,0,0,0,0,-0.7829,-0.7829,0,-0.7827,-0.7827,-0.7827,-0.7826,-0.7826,-0.7826,-0.7826,-0.7823,-0.7822,-0.7822,0,0,0,0,0,0,0,0,0,0,0,0,0,-0.7834,-0.7834,-0.7829,-0.7829,-0.7829,-0.7827,-0.7827,-0.7827,-0.7826,-0.7826,-0.7826,-0.7826,-0.7823,-0.7822,-0.7822,0,0,0,0,0,0,0,0,0,0,0,0,0,-0.7832,-0.7834,-0.7829,-0.7829,-0.7828,-0.7827,-0.7827,-0.7827,-0.7826,-0.7826,-0.7826,-0.7826,-0.7823,-0.7822,-0.7822,-0.7821,0,0,-0.7822,-0.7822,0,0,0,0,0,0,0,0,-0.7832,-0.7831,-0.7829,-0.7829,-0.7829,-0.7827,-0.7827,-0.7825,-0.7826,-0.7827,-0.7826,-0.7826,-0.7824,-0.7824,-0.7823,-0.7821,-0.7821,-0.7822,-0.7822,-0.7822,-0.7822,0,0,0,0,0,0,0,-0.7832,-0.7832,-0.7828,-0.7829,-0.7829,-0.7828,-0.7828,-0.7827,-0.7825,-0.7827,-0.7827,-0.7826,-0.7824,-0.7823,-0.7823,-0.7821,-0.7822,-0.7822,-0.7822,-0.7822,-0.7818,-0.7818,0,0,0,0,0,0,-0.7832,-0.7832,-0.7828,-0.7828,-0.783,-0.7828,-0.7828,-0.7827,-0.7825,-0.7825,-0.7826,-0.7826,-0.7823,-0.7823,-0.7823,-0.7822,-0.7822,-0.7822,-0.7821,-0.7818,-0.7818,-0.7818,0,0,0,0,0,0,-0.7832,-0.7832,-0.7828,-0.783,-0.783,-0.7828,-0.7827,-0.7827,-0.7826,-0.7825,-0.7825,-0.7826,-0.7823,-0.7823,-0.7822,-0.7821,-0.7821,-0.7821,-0.7818,-0.7818,-0.7818,-0.7819,0,0,0,0,0,0,-0.7833,-0.7832,-0.7831,-0.783,-0.7829,-0.7827,-0.7827,-0.7827,-0.7826,-0.7826,-0.7824,-0.7824,-0.7823,-0.7822,-0.7822,-0.7821,-0.7821,-0.7818,-0.7818,-0.7818,-0.7819,-0.7819,-0.7819,0,0,0,0,0,-0.7833,-0.7831,-0.7831,-0.7831,-0.7829,-0.7827,-0.7827,-0.7826,-0.7826,-0.7826,-0.7825,-0.7824,-0.7822,-0.7822,-0.7821,-0.7821,-0.7818,-0.7818,-0.7818,-0.7819,-0.7819,-0.7819,0,0,0,0,0,0,-0.7832,-0.7831,-0.7831,-0.7829,-0.7828,-0.7827,-0.7826,-0.7826,-0.7825,-0.7825,-0.7824,-0.7824,-0.7822,-0.7822,-0.7822,-0.782,-0.782,-0.782,-0.782,-0.782,-0.7821,-0.7821,-0.7821,0,0,0,0,0,-0.7832,-0.7831,-0.783,-0.7828,-0.7828,-0.7827,-0.7827,-0.7826,-0.7825,-0.7825,-0.7824,-0.7823,-0.7822,-0.7821,-0.782,-0.7819,-0.7819,-0.7819,-0.7819,-0.7819,-0.7818,-0.7818,-0.7818,-0.7818,-0.7818,-0.7818,0,0,-0.7831,-0.783,-0.783,-0.7828,-0.7828,-0.7827,-0.7827,-0.7826,-0.7825,-0.7825,-0.7823,-0.7823,-0.7822,-0.7821,-0.782,-0.782,-0.7819,-0.7819,-0.7819,-0.7818,-0.7818,-0.7818,-0.7818,-0.7818,-0.7818,-0.7818,0,0,-0.7829,-0.7828,-0.7827,-0.7827,-0.7826,-0.7826,-0.7826,-0.7825,-0.7824,-0.7823,-0.7823,-0.7823,-0.7821,-0.782,-0.782,-0.7819,-0.7819,-0.7819,-0.7819,-0.7819,-0.7819,-0.7819,-0.7819,-0.7819,-0.7819,-0.7819,-0.7819,0,-0.7828,-0.7827,-0.7827,-0.7826,-0.7825,-0.7826,-0.7825,-0.7824,-0.7823,-0.7823,-0.7823,-0.7822,-0.7821,-0.782,-0.782,-0.7819,-0.7819,-0.7819,-0.7819,-0.7819,-0.7819,-0.7819,-0.7819,-0.7819,-0.7819,-0.7819,-0.7819,0,-0.7826,-0.7825,-0.7824,-0.7823,-0.7823,-0.7822,-0.7822,-0.7822,-0.7822,-0.7822,-0.7821,-0.7821,-0.782,-0.782,-0.782,-0.7819,-0.7819,-0.7819,-0.7819,-0.7819,-0.7819,-0.7819,-0.7819,-0.7819,-0.7819,-0.7819,0,0,-0.7822,-0.7822,-0.7822,-0.7822,-0.7822,-0.7821,-0.7821,-0.7821,-0.7821,-0.782,-0.782,-0.7819,-0.782,-0.7819,-0.7819,-0.7819,-0.7819,-0.7819,-0.7819,-0.7819,-0.7819,-0.7819,-0.7819,-0.7819,-0.7819,-0.7819,-0.7819,0,-0.782,-0.7819,-0.782,-0.7819,-0.7818,-0.7819,-0.7819,-0.7819,-0.7819,-0.7819,-0.7819,-0.7819,-0.7819,-0.7819,-0.7819,-0.7819,-0.7819,-0.7819,-0.7819,-0.7819,-0.7819,-0.7819,-0.7818,-0.7818,-0.7819,-0.7819,-0.7819,0,-0.7817,-0.7817,-0.7816,-0.7817,-0.7817,-0.7817,-0.7817,-0.7817,-0.7817,-0.7817,-0.7817,-0.7818,-0.7818,-0.7818,-0.7818,-0.7819,-0.7819,-0.7819,-0.7819,-0.7818,-0.7819,-0.7818,-0.7818,-0.7818,-0.7819,-0.7819,-0.7819,0,-0.7815,-0.7815,-0.7814,-0.7814,-0.7815,-0.7815,-0.7815,-0.7816,-0.7816,-0.7816,-0.7817,-0.7817,-0.7817,-0.7817,-0.7818,-0.7818,-0.7818,-0.7819,-0.7819,-0.7819,-0.7818,-0.7818,-0.7818,-0.7819,-0.7819,-0.7819,-0.7819,0,-0.7812,-0.7811,-0.7813,-0.7813,-0.7813,-0.7814,-0.7813,-0.7814,-0.7815,-0.7815,-0.7816,-0.7816,-0.7817,-0.7817,-0.7818,-0.7818,-0.7818,-0.7818,-0.7818,-0.7818,-0.7818,-0.7818,-0.7818,-0.7819,-0.7819,-0.7819,-0.7819,0,-0.7809,-0.781,-0.781,-0.7811,-0.7811,-0.7811,-0.7812,-0.7812,-0.7813,-0.7813,-0.7813,-0.7815,-0.7815,-0.7816,-0.7817,-0.7817,-0.7818,-0.7818,-0.7817,-0.7817,-0.7817,-0.7817,-0.7817,-0.7817,-0.7818,-0.7818,-0.7818,0,-0.7807,-0.7807,-0.7808,-0.7808,-0.7809,-0.7809,-0.781,-0.7811,-0.7811,-0.7813,-0.7813,-0.7813,-0.7814,-0.7815,-0.7816,-0.7817,-0.7817,-0.7817,-0.7817,-0.7817,-0.7817,-0.7817,-0.7817,-0.7817,-0.7817,-0.7817,-0.7817,0,-0.7803,-0.7804,-0.7805,-0.7806,-0.7806,-0.7807,-0.7808,-0.7808,-0.781,-0.781,-0.7811,-0.7812,-0.7813,-0.7814,-0.7815,-0.7816,-0.7817,-0.7817,-0.7817,-0.7816,-0.7816,-0.7816,-0.7817,-0.7816,-0.7816,-0.7816,-0.7816,-0.7816,-0.7801,-0.7801,-0.7802,-0.7803,-0.7804,-0.7805,-0.7805,-0.7806,-0.7807,-0.7808,-0.7809,-0.781,-0.7812,-0.7814,-0.7814,-0.7815,-0.7816,-0.7816,-0.7816,-0.7815,-0.7815,-0.7816,-0.7816,-0.7816,-0.7816,-0.7816,-0.7816,0,-0.7797,-0.7798,-0.7799,-0.7801,-0.7801,-0.7803,-0.7804,-0.7805,-0.7805,-0.7807,-0.7808,-0.7809,-0.781,-0.7812,-0.7814,-0.7814,-0.7814,-0.7814,-0.7814,-0.7814,-0.7815,-0.7815,-0.7814,-0.7814,-0.7814,-0.7814,-0.7814,-0.7814,-0.7795,-0.7796,-0.7797,-0.7798,-0.7799,-0.78,-0.7801,-0.7802,-0.7803,-0.7805,-0.7806,-0.7807,-0.7809,-0.7811,-0.7812,-0.7813,-0.7813,-0.7813,-0.7814,-0.7814,-0.7814,-0.7814,-0.7814,-0.7813,-0.7813,-0.7813,-0.7813,-0.7813]}]]